Simultaneous Nadir Overpasses (SNOs) Predictions

Prediction of SNOs between AQUA and GOES-15 Satellite Orbit:

Table of predicted SNOs for the next 14.0 days since TLE Epoch: 3/14/2014
Index Date Time (AQUA) AQUA Lat,Lon GOES-15 Lat,Lon Distance(km) Time Diff (sec)
1 03/15/2014 22:29:34 0.27,-133.37 0.03,-134.45 123.34 80
2 03/16/2014 10:50:50 0.85,-138.52 -0.02,-134.42 466.33 80
3 03/17/2014 22:17:25 0.86,-130.42 0.03,-134.35 447.05 80
4 03/18/2014 10:38:41 0.25,-135.57 -0.02,-134.32 142.81 80
5 03/20/2014 10:26:31 -0.34,-132.61 -0.03,-134.20 180.26 80
6 03/20/2014 22:47:56 -0.74,-137.81 0.02,-134.17 413.45 80
7 03/22/2014 22:35:45 -0.16,-134.84 0.02,-134.05 90.93 80
8 03/24/2014 22:23:34 0.47,-131.89 0.02,-133.92 231.22 80
9 03/25/2014 10:44:49 0.67,-137.04 -0.01,-133.89 358.25 80
10 03/27/2014 10:32:37 0.05,-134.07 -0.01,-133.75 36.37 80




NCC Satellite Simultaneous Nadir Overpasses (SNOs) Prediction Service
